GW5236 Weather Reports


Display with metric or nautical units.
time (UTC)temp
F
wind
direction
speed
MPH
gust
MPH
rain 1hr
in
rain 24hr
in
rain mn
in
humidity
%
barometer
mb
20260903205012 93 213 5.0 11.0 0.00 0.00 0.00 54 1014.1
20260903204525 93 178 1.0 12.0 0.00 0.00 0.00 55 1014.2
20260903204015 93 269 2.0 12.0 0.00 0.00 0.00 56 1014.2
20260903203522 93 15 5.0 12.0 0.00 0.00 0.00 54 1014.2
20260903203032 93 111 4.0 12.0 0.00 0.00 0.00 54 1014.2
20260903202516 92 222 1.0 8.0 0.00 0.00 0.00 58 1014.2
20260903202018 92 282 3.0 11.0 0.00 0.00 0.00 58 1014.3
20260903201533 92 270 3.0 11.0 0.00 0.00 0.00 57 1014.4
20260903201015 92 251 3.0 10.0 0.00 0.00 0.00 57 1014.6
20260903200514 92 247 3.0 11.0 0.00 0.00 0.00 58 1014.8
20260903200043 92 284 3.0 11.0 0.00 0.00 0.00 59 1015.0
20260903195514 92 192 2.0 10.0 0.00 0.00 0.00 59 1015.0
20260903195018 92 171 2.0 6.0 0.00 0.00 0.00 56 1015.1
20260903194535 93 226 2.0 9.0 0.00 0.00 0.00 56 1015.3
20260903194010 93 222 3.0 11.0 0.00 0.00 0.00 56 1015.3
20260903193513 93 263 3.0 11.0 0.00 0.00 0.00 57 1015.4
20260903193030 93 138 3.0 10.0 0.00 0.00 0.00 57 1015.5
20260903192520 93 98 5.0 10.0 0.00 0.00 0.00 56 1015.7
20260903192015 93 206 4.0 8.0 0.00 0.00 0.00 57 1015.8
20260903191540 93 241 3.0 8.0 0.00 0.00 0.00 56 1015.9
20260903191018 93 237 2.0 8.0 0.00 0.00 0.00 55 1015.9
20260903190508 93 230 4.0 11.0 0.00 0.00 0.00 54 1016.0
20260903190014 92 192 4.0 11.0 0.00 0.00 0.00 54 1016.0
20260903185507 93 258 4.0 11.0 0.00 0.00 0.00 53 1015.9
20260903185011 93 248 4.0 8.0 0.00 0.00 0.00 59 1016.0
20260903184523 93 290 2.0 12.0 0.00 0.00 0.00 58 1016.1
20260903184012 93 328 3.0 12.0 0.00 0.00 0.00 55 1016.1
20260903183511 93 274 3.0 8.0 0.00 0.00 0.00 57 1016.0
20260903183038 93 198 2.0 9.0 0.00 0.00 0.00 58 1016.0
20260903182517 92 266 2.0 9.0 0.00 0.00 0.00 60 1016.1
20260903182015 92 280 3.0 9.0 0.00 0.00 0.00 59 1016.1
20260903181530 92 111 3.0 9.0 0.00 0.00 0.00 59 1016.3
20260903181016 92 186 2.0 8.0 0.00 0.00 0.00 61 1016.4
20260903180518 92 268 3.0 11.0 0.00 0.00 0.00 59 1016.3
20260903180036 92 284 4.0 11.0 0.00 0.00 0.00 59 1016.3
20260903175518 92 208 3.0 9.0 0.00 0.00 0.00 58 1016.5
20260903175008 92 187 1.0 7.0 0.00 0.00 0.00 61 1016.7
20260903174522 92 263 3.0 8.0 0.00 0.00 0.00 59 1016.8
20260903174013 92 273 3.0 8.0 0.00 0.00 0.00 59 1016.6
20260903173509 92 198 3.0 8.0 0.00 0.00 0.00 59 1016.7
20260903173027 92 188 2.0 8.0 0.00 0.00 0.00 60 1016.7
20260903172513 92 262 3.0 7.0 0.00 0.00 0.00 60 1016.7
20260903172011 92 198 2.0 7.0 0.00 0.00 0.00 60 1016.7
20260903171529 92 284 2.0 4.0 0.00 0.00 0.00 60 1016.7
20260903171014 91 279 2.0 8.0 0.00 0.00 0.00 63 1016.7
20260903170514 91 310 2.0 8.0 0.00 0.00 0.00 61 1016.8
20260903170033 91 304 2.0 8.0 0.00 0.00 0.00 61 1016.8
20260903165515 91 216 1.0 8.0 0.00 0.00 0.00 63 1016.9
20260903165018 91 250 3.0 8.0 0.00 0.00 0.00 64 1016.8
20260903164533 91 307 2.0 7.0 0.00 0.00 0.00 63 1016.9
20260903164011 91 261 2.0 9.0 0.00 0.00 0.00 64 1016.9
20260903163514 90 263 2.0 9.0 0.00 0.00 0.00 62 1016.9
20260903163024 90 238 1.0 8.0 0.00 0.00 0.00 64 1017.0
20260903162510 90 265 3.0 8.0 0.00 0.00 0.00 63 1017.1
20260903162012 90 223 3.0 8.0 0.00 0.00 0.00 64 1017.1
20260903161537 90 290 2.0 6.0 0.00 0.00 0.00 67 1017.1
20260903161013 90 290 2.0 7.0 0.00 0.00 0.00 67 1017.2
20260903160516 89 250 3.0 7.0 0.00 0.00 0.00 67 1017.1
20260903160031 89 282 4.0 7.0 0.00 0.00 0.00 66 1017.2
20260903155520 89 314 2.0 6.0 0.00 0.00 0.00 67 1017.2
20260903155015 89 279 3.0 7.0 0.00 0.00 0.00 65 1017.2
20260903154534 89 258 2.0 8.0 0.00 0.00 0.00 66 1017.3
20260903154021 89 271 3.0 8.0 0.00 0.00 0.00 68 1017.2
20260903153515 88 159 4.0 8.0 0.00 0.00 0.00 67 1017.4
20260903153018 88 215 1.0 8.0 0.00 0.00 0.00 70 1017.3
20260903152510 88 183 2.0 10.0 0.00 0.00 0.00 69 1017.3
20260903152009 88 232 2.0 10.0 0.00 0.00 0.00 69 1017.2
20260903151527 88 178 2.0 8.0 0.00 0.00 0.00 71 1017.3
20260903151012 87 182 2.0 7.0 0.00 0.00 0.00 70 1017.2
20260903150514 87 189 2.0 9.0 0.00 0.00 0.00 68 1017.2
20260903150031 87 179 3.0 9.0 0.00 0.00 0.00 70 1017.2
20260903145516 87 277 2.0 6.0 0.00 0.00 0.00 71 1017.2
20260903145018 86 284 2.0 6.0 0.00 0.00 0.00 72 1017.2
20260903144531 86 284 1.0 6.0 0.00 0.00 0.00 72 1017.2
20260903144018 86 306 3.0 6.0 0.00 0.00 0.00 72 1017.2
20260903143517 85 213 2.0 7.0 0.00 0.00 0.00 72 1017.2
20260903143041 85 282 4.0 7.0 0.00 0.00 0.00 71 1017.2
20260903142519 85 275 2.0 7.0 0.00 0.00 0.00 73 1017.2
20260903142023 85 263 2.0 10.0 0.00 0.00 0.00 73 1017.3
20260903141527 85 205 3.0 10.0 0.00 0.00 0.00 70 1017.3
20260903141012 85 261 2.0 5.0 0.00 0.00 0.00 72 1017.2
20260903140514 84 249 2.0 8.0 0.00 0.00 0.00 75 1017.4
20260903140028 84 266 3.0 8.0 0.00 0.00 0.00 73 1017.3
20260903135516 84 273 2.0 8.0 0.00 0.00 0.00 73 1017.4
20260903135016 84 267 3.0 8.0 0.00 0.00 0.00 72 1017.3
20260903134510 84 287 4.0 8.0 0.00 0.00 0.00 73 1017.3
20260903134005 84 284 2.0 8.0 0.00 0.00 0.00 74 1017.2
20260903133512 83 299 2.0 8.0 0.00 0.00 0.00 76 1017.2
20260903133020 83 274 2.0 8.0 0.00 0.00 0.00 75 1017.2
20260903132509 82 312 1.0 5.0 0.00 0.00 0.00 79 1017.3
20260903132011 82 163 2.0 5.0 0.00 0.00 0.00 78 1017.3
20260903131525 81 238 2.0 5.0 0.00 0.00 0.00 79 1017.3
20260903131012 81 219 2.0 6.0 0.00 0.00 0.00 80 1017.3
20260903130514 80 227 1.0 6.0 0.00 0.00 0.00 81 1017.3
20260903130030 80 171 2.0 5.0 0.00 0.00 0.00 81 1017.4
20260903125514 79 246 1.0 5.0 0.00 0.00 0.00 82 1017.4
20260903125003 79 168 2.0 5.0 0.00 0.00 0.00 83 1017.5
20260903124513 78 282 1.0 3.0 0.00 0.00 0.00 85 1017.4
20260903124005 77 290 0.0 2.0 0.00 0.00 0.00 86 1017.4
20260903123506 77 277 0.0 4.0 0.00 0.00 0.00 87 1017.4
20260903123014 76 321 0.0 4.0 0.00 0.00 0.00 87 1017.5
20260903122508 76 196 0.0 2.0 0.00 0.00 0.00 87 1017.6
20260903122009 75 215 0.0 2.0 0.00 0.00 0.00 88 1017.6
20260903121538 75 229 0.0 2.0 0.00 0.00 0.00 88 1017.5
20260903121009 75 191 0.0 3.0 0.00 0.00 0.00 88 1017.6
20260903120513 74 162 1.0 2.0 0.00 0.00 0.00 89 1017.4
20260903120026 74 239 1.0 2.0 0.00 0.00 0.00 90 1017.4
20260903115512 74 239 0.0 2.0 0.00 0.00 0.00 90 1017.4
20260903115012 74 239 0.0 2.0 0.00 0.00 0.00 90 1017.4
20260903114528 73 239 0.0 0.0 0.00 0.00 0.00 90 1017.4
20260903114003 73 239 0.0 0.0 0.00 0.00 0.00 90 1017.4
20260903113510 73 239 0.0 2.0 0.00 0.00 0.00 90 1017.3
20260903113015 74 239 0.0 2.0 0.00 0.00 0.00 90 1017.3
20260903112508 74 239 0.0 2.0 0.00 0.00 0.00 90 1017.3
20260903112008 74 239 0.0 2.0 0.00 0.00 0.00 90 1017.1
20260903111519 74 239 0.0 0.0 0.00 0.00 0.00 89 1017.2
20260903111008 74 239 0.0 2.0 0.00 0.00 0.00 89 1017.1
20260903110510 74 239 0.0 2.0 0.00 0.00 0.00 89 1016.9
20260903110023 74 239 0.0 2.0 0.00 0.00 0.00 88 1016.8
20260903105513 74 239 0.0 2.0 0.00 0.00 0.00 88 1016.9
20260903105013 75 239 0.0 2.0 0.00 0.00 0.00 88 1016.8
20260903104533 75 239 0.0 2.0 0.00 0.00 0.00 88 1016.7
20260903104017 75 285 0.0 2.0 0.00 0.00 0.00 88 1016.6
20260903103516 75 256 0.0 2.0 0.00 0.00 0.00 88 1016.6
20260903103033 75 201 0.0 2.0 0.00 0.00 0.00 88 1016.6
20260903102506 75 221 0.0 2.0 0.00 0.00 0.00 88 1016.6
20260903102008 75 185 0.0 2.0 0.00 0.00 0.00 88 1016.6
20260903101526 75 185 0.0 2.0 0.00 0.00 0.00 88 1016.7
20260903101006 75 219 0.0 2.0 0.00 0.00 0.00 88 1016.6
20260903100508 75 218 0.0 2.0 0.00 0.00 0.00 88 1016.6
20260903100028 75 218 0.0 2.0 0.00 0.00 0.00 88 1016.7
20260903095513 75 193 0.0 2.0 0.00 0.00 0.00 88 1016.6
20260903095015 75 193 0.0 2.0 0.00 0.00 0.00 88 1016.5
20260903094530 75 188 0.0 2.0 0.00 0.00 0.00 88 1016.6
20260903094016 75 240 0.0 2.0 0.00 0.00 0.00 88 1016.5
20260903093516 75 240 0.0 3.0 0.00 0.00 0.00 88 1016.5
20260903093031 75 240 0.0 3.0 0.00 0.00 0.00 88 1016.5
20260903092516 75 207 1.0 2.0 0.00 0.00 0.00 88 1016.4
20260903092016 75 196 1.0 2.0 0.00 0.00 0.00 89 1016.4
20260903091515 75 169 0.0 2.0 0.00 0.00 0.00 89 1016.3
20260903091006 75 169 0.0 2.0 0.00 0.00 0.00 89 1016.3
20260903090506 75 169 0.0 2.0 0.00 0.00 0.00 89 1016.3
20260903090017 75 169 0.0 2.0 0.00 0.00 0.00 88 1016.2
20260903085512 75 169 0.0 2.0 0.00 0.00 0.00 89 1016.2
20260903085014 75 169 0.0 2.0 0.00 0.00 0.00 89 1016.3
20260903084526 75 169 1.0 2.0 0.00 0.00 0.00 89 1016.4
20260903084016 74 169 0.0 2.0 0.00 0.00 0.00 90 1016.2
20260903083516 74 169 0.0 2.0 0.00 0.00 0.00 90 1016.2
20260903083029 74 169 0.0 2.0 0.00 0.00 0.00 90 1016.2
20260903082515 74 169 0.0 2.0 0.00 0.00 0.00 90 1016.3
20260903082018 74 169 0.0 2.0 0.00 0.00 0.00 91 1016.5
20260903081532 74 169 0.0 2.0 0.00 0.00 0.00 91 1016.5
20260903081017 74 169 0.0 2.0 0.00 0.00 0.00 91 1016.3
20260903080508 74 169 0.0 2.0 0.00 0.00 0.00 91 1016.3
20260903080017 74 169 0.0 2.0 0.00 0.00 0.00 91 1016.3
20260903075508 74 169 0.0 2.0 0.00 0.00 0.00 91 1016.4
20260903075014 74 169 0.0 2.0 0.00 0.00 0.00 91 1016.5
20260903074527 74 169 0.0 2.0 0.00 0.00 0.00 91 1016.5
20260903074014 74 169 0.0 2.0 0.00 0.00 0.00 91 1016.4
20260903073514 74 169 0.0 1.0 0.00 0.00 0.00 90 1016.3
20260903073042 74 169 0.0 1.0 0.00 0.00 0.00 90 1016.3
20260903072516 74 169 0.0 0.0 0.00 0.00 0.00 90 1016.4
20260903072014 74 169 0.0 0.0 0.00 0.00 0.00 90 1016.5
20260903071533 75 169 0.0 2.0 0.00 0.00 0.00 89 1016.6
20260903071020 75 169 0.0 2.0 0.00 0.00 0.00 89 1016.5
20260903070518 75 169 0.0 2.0 0.00 0.00 0.00 89 1016.5
20260903070031 75 169 0.0 2.0 0.00 0.00 0.00 89 1016.5
20260903065518 75 169 0.0 2.0 0.00 0.00 0.00 89 1016.6
20260903065007 75 169 0.0 2.0 0.00 0.00 0.00 89 1016.6
20260903064527 75 169 0.0 2.0 0.00 0.00 0.00 89 1016.7
20260903064012 75 169 0.0 2.0 0.00 0.00 0.00 88 1016.7
20260903063503 75 169 0.0 0.0 0.00 0.00 0.00 88 1016.7
20260903063004 76 169 0.0 2.0 0.00 0.00 0.00 88 1016.7
20260903062504 76 169 0.0 2.0 0.00 0.00 0.00 88 1016.7
20260903062005 76 169 0.0 2.0 0.00 0.00 0.00 88 1016.8
20260903061509 75 169 0.0 2.0 0.00 0.00 0.00 88 1016.8
20260903061005 75 169 0.0 2.0 0.00 0.00 0.00 89 1016.7
20260903060507 75 169 0.0 2.0 0.00 0.00 0.00 89 1016.7
20260903060017 75 169 0.0 2.0 0.00 0.00 0.00 89 1016.6
20260903055506 75 169 0.0 2.0 0.00 0.00 0.00 90 1016.7
20260903055009 74 169 0.0 2.0 0.00 0.00 0.00 91 1016.7
20260903054518 74 169 0.0 2.0 0.00 0.00 0.00 92 1016.6
20260903054013 74 169 0.0 2.0 0.00 0.00 0.00 93 1016.6
20260903053512 73 169 0.0 2.0 0.00 0.00 0.00 93 1016.6
20260903053027 73 169 0.0 0.0 0.00 0.00 0.00 92 1016.6
20260903052503 73 169 0.0 0.0 0.00 0.00 0.00 93 1016.6
20260903052003 73 169 0.0 0.0 0.00 0.00 0.00 92 1016.4
20260903051507 73 169 0.0 0.0 0.00 0.00 0.00 93 1016.3
20260903051008 73 169 0.0 0.0 0.00 0.00 0.00 92 1016.4
20260903050508 73 169 0.0 0.0 0.00 0.00 0.00 92 1016.3
20260903050011 74 169 0.0 0.0 0.00 0.00 0.00 92 1016.3
20260903045508 74 169 0.0 0.0 0.00 0.00 0.00 92 1016.2
20260903045008 74 169 0.0 0.0 0.00 0.00 0.00 92 1016.2
20260903044518 74 169 0.0 0.0 0.00 0.00 0.00 91 1016.2
20260903044010 74 169 0.0 0.0 0.00 0.00 0.00 91 1016.1
20260903043511 74 169 0.0 0.0 0.00 0.00 0.00 91 1016.0
20260903043023 74 169 0.0 0.0 0.00 0.00 0.00 91 1016.1
20260903042514 74 169 0.0 0.0 0.00 0.00 0.00 91 1016.0
20260903042015 75 169 0.0 1.0 0.00 0.00 0.00 90 1016.0
20260903041505 75 169 0.0 1.0 0.00 0.00 0.00 90 1015.9
20260903041003 75 169 0.0 2.0 0.00 0.00 0.00 90 1016.0
20260903040505 75 169 0.0 2.0 0.00 0.00 0.00 90 1015.9
20260903040010 75 169 0.0 0.0 0.00 0.00 0.00 90 1016.0
20260903035506 75 169 0.0 0.0 0.00 0.00 0.00 90 1016.0
20260903035006 75 169 0.0 0.0 0.00 0.00 0.00 90 1016.0
20260903034519 75 169 0.0 0.0 0.00 0.00 0.00 89 1016.0
20260903034008 75 169 0.0 0.0 0.00 0.00 0.00 89 1016.1
20260903033512 75 169 0.0 0.0 0.00 0.00 0.00 89 1016.1
20260903033024 76 169 0.0 0.0 0.00 0.00 0.00 89 1016.2
20260903032512 76 169 0.0 0.0 0.00 0.00 0.00 88 1016.3
20260903032015 76 169 0.0 0.0 0.00 0.00 0.00 87 1016.4
20260903031525 76 169 0.0 2.0 0.00 0.00 0.00 87 1016.4
20260903031015 77 169 0.0 2.0 0.00 0.00 0.00 86 1016.4
20260903030515 77 169 0.0 2.0 0.00 0.00 0.00 86 1016.4
20260903030009 76 169 0.0 2.0 0.00 0.00 0.00 87 1016.5
20260903025503 76 169 1.0 2.0 0.00 0.00 0.00 88 1016.5
20260903025006 75 169 0.0 2.0 0.00 0.00 0.00 90 1016.6
20260903024511 75 169 0.0 2.0 0.00 0.00 0.00 91 1016.5
20260903024008 75 169 0.0 2.0 0.00 0.00 0.00 91 1016.6
20260903023508 75 169 0.0 0.0 0.00 0.00 0.00 90 1016.6
20260903023022 75 169 0.0 0.0 0.00 0.00 0.00 90 1016.6
20260903022511 75 169 0.0 0.0 0.00 0.00 0.00 90 1016.7
20260903022011 76 169 0.0 0.0 0.00 0.00 0.00 90 1016.7
20260903021528 76 169 0.0 0.0 0.00 0.00 0.00 89 1016.7
20260903021011 76 169 0.0 0.0 0.00 0.00 0.00 89 1016.7
20260903020515 76 169 0.0 0.0 0.00 0.00 0.00 88 1016.7
20260903020039 77 169 0.0 0.0 0.00 0.00 0.00 88 1016.7
20260903015516 77 169 0.0 0.0 0.00 0.00 0.00 87 1016.7
20260903015003 77 169 0.0 0.0 0.00 0.00 0.00 87 1016.6
20260903014512 78 169 0.0 0.0 0.00 0.00 0.00 86 1016.6
20260903014004 78 169 0.0 0.0 0.00 0.00 0.00 86 1016.6
20260903013509 78 169 0.0 0.0 0.00 0.00 0.00 84 1016.5
20260903013020 79 169 0.0 0.0 0.00 0.00 0.00 84 1016.5
20260903012509 79 169 0.0 0.0 0.00 0.00 0.00 84 1016.5
20260903012011 79 169 0.0 0.0 0.00 0.00 0.00 83 1016.6
20260903011526 80 169 0.0 0.0 0.00 0.00 0.00 82 1016.5
20260903011015 80 169 0.0 0.0 0.00 0.00 0.00 81 1016.4
20260903010514 81 169 0.0 0.0 0.00 0.00 0.00 80 1016.3
20260903010032 82 169 0.0 2.0 0.00 0.00 0.00 79 1016.3
20260903005514 82 169 0.0 2.0 0.00 0.00 0.00 77 1016.3
20260903005018 82 169 0.0 2.0 0.00 0.00 0.00 76 1016.2
20260903004534 82 169 0.0 2.0 0.00 0.00 0.00 76 1016.2
20260903004004 83 169 0.0 2.0 0.00 0.00 0.00 76 1016.0
20260903003504 83 169 1.0 2.0 0.00 0.00 0.00 75 1015.9
20260903003015 83 169 0.0 2.0 0.00 0.00 0.00 75 1015.9
20260903002509 84 169 1.0 2.0 0.00 0.00 0.00 74 1015.9
20260903002011 84 169 0.0 1.0 0.00 0.00 0.00 73 1016.0
20260903001653 84 169 1.0 2.0 0.00 0.00 0.00 72 1015.9
20260903001042 85 192 1.0 2.0 0.00 0.00 0.00 71 1015.9
20260903000512 85 142 0.0 3.0 0.00 0.00 0.00 71 1016.0
20260903000039 85 196 0.0 3.0 0.00 0.00 0.00 71 1016.0
20260902235513 86 205 1.0 2.0 0.00 0.00 0.00 70 1016.0
20260902235013 86 205 1.0 3.0 0.00 0.00 0.00 70 1016.0
20260902234530 86 197 0.0 3.0 0.00 0.00 0.00 69 1016.0
20260902234016 87 168 0.0 2.0 0.00 0.00 0.00 69 1016.0
20260902233517 87 163 1.0 3.0 0.00 0.00 0.00 69 1015.9
20260902233034 87 195 1.0 3.0 0.00 0.00 0.00 67 1016.0
20260902232508 87 205 1.0 3.0 0.00 0.00 0.00 67 1016.0
20260902232051 88 180 1.0 3.0 0.00 0.00 0.00 67 1016.0
20260902231523 88 192 1.0 3.0 0.00 0.00 0.00 66 1015.9
20260902231009 88 196 2.0 5.0 0.00 0.00 0.00 65 1015.9
20260902230508 88 165 1.0 5.0 0.00 0.00 0.00 65 1015.8
20260902230026 88 218 1.0 4.0 0.00 0.00 0.00 64 1015.9
20260902225513 89 184 1.0 4.0 0.00 0.00 0.00 63 1015.9
20260902225012 89 193 1.0 4.0 0.00 0.00 0.00 63 1016.0
20260902224533 89 221 1.0 6.0 0.00 0.00 0.00 62 1016.0
20260902224014 90 190 0.0 6.0 0.00 0.00 0.00 61 1015.9
20260902223516 90 205 1.0 7.0 0.00 0.00 0.00 60 1016.0
20260902223051 91 144 3.0 7.0 0.00 0.00 0.00 59 1016.0
20260902222516 91 200 2.0 5.0 0.00 0.00 0.00 59 1016.0
20260902222018 91 267 1.0 6.0 0.00 0.00 0.00 59 1016.1
20260902221520 91 279 1.0 12.0 0.00 0.00 0.00 58 1016.0
20260902221008 91 246 4.0 12.0 0.00 0.00 0.00 57 1016.0
20260902220510 92 219 2.0 7.0 0.00 0.00 0.00 57 1016.0
20260902220024 92 153 2.0 7.0 0.00 0.00 0.00 56 1016.0
20260902215509 92 280 2.0 8.0 0.00 0.00 0.00 55 1015.9
20260902215014 92 223 2.0 8.0 0.00 0.00 0.00 56 1015.9
20260902214529 92 215 2.0 6.0 0.00 0.00 0.00 55 1016.0
20260902214016 92 175 3.0 10.0 0.00 0.00 0.00 54 1016.1
20260902213517 92 229 4.0 10.0 0.00 0.00 0.00 54 1016.1
20260902213031 92 163 4.0 10.0 0.00 0.00 0.00 58 1016.0
20260902212514 92 286 3.0 10.0 0.00 0.00 0.00 56 1016.0
20260902212020 92 165 1.0 7.0 0.00 0.00 0.00 57 1016.1
20260902211534 92 202 3.0 7.0 0.00 0.00 0.00 55 1016.1
20260902211015 92 146 2.0 6.0 0.00 0.00 0.00 57 1016.0
20260902210514 92 177 3.0 8.0 0.00 0.00 0.00 55 1016.0
20260902210021 92 297 1.0 13.0 0.00 0.00 0.00 56 1016.1
20260902205512 92 256 3.0 13.0 0.00 0.00 0.00 55 1016.1